Location: Nied?wied?
(53.3665°N, 14.8184°E)
Time: 00:33:24
(UTC+00:00)

Cosmos 1777 Rocket - Pass Details

Date: 03 March 2021
Orbit: 759 x 775 km, 74.0° (Epoch: 11 April)

Event Time Altitude Azimuth Distance (km) Brightness Sun altitude
Rises 18:26:22 0° 333° (NNW) 3,254 7.8 -16.2°
Reaches altitude 10° 18:28:46 10° 334° (NNW) 2,320 7.0 -16.5°
Maximum altitude 18:34:03 86° 65° (ENE) 775 3.9 -17.3°
Enters shadow 18:38:03 18° 153° (SSE) 1,829 5.6 -17.9°
